Wind_Speed
104 104 102 100 99 98 96 95 92 89 95 102 92 94 101 100 100 103 105 111 110 112 99 96 94 89 85 82 77 73 72 71 73 72 71 72 72 74
111 109 107 106 104 103 94 101 94 91 100 102 100 102 100 104 104 109 112 113 110 99 99 96 92 84 83 80 78 77 77 79 81 82 81 80 81 81
126 123 119 116 112 106 102 98 97 96 95 104 103 103 109 113 115 111 108 102 104 101 97 92 88 84 80 83 84 84 85 80 77 77 79 80 82 84
118 118 118 116 113 109 106 99 105 101 100 104 108 113 113 107 103 102 101 102 96 98 96 94 92 87 87 94 88 87 82 77 76 78 82 86 88 90
103 106 109 108 109 110 107 105 105 102 102 103 103 104 105 105 103 100 98 94 95 97 93 88 84 89 92 83 80 80 82 82 84 88 89 90 90 92
95 93 97 99 98 100 97 95 92 91 91 93 96 96 96 96 96 95 94 90 91 88 84 88 90 84 83 83 84 81 82 83 86 89 94 98 101 102
63 70 81 93 99 100 98 94 89 86 85 85 84 89 91 90 87 85 84 87 91 84 84 86 83 87 87 86 85 85 88 91 94 97 101 104 106 99
41 46 56 64 73 78 81 80 79 81 83 82 85 86 79 81 78 78 78 80 82 84 84 89 86 90 90 90 90 92 94 96 97 97 96 94 91 87
20 23 31 38 46 53 59 64 70 73 75 77 73 70 73 75 77 80 82 84 86 86 84 91 93 95 95 95 95 93 90 88 88 85 83 79 76 73
14 13 14 18 25 32 37 41 45 51 57 62 68 72 75 79 83 85 86 86 89 91 90 96 100 102 101 91 87 81 78 77 74 71 69 67 65 64
22 20 21 22 26 30 36 42 47 54 61 68 73 78 82 85 88 91 93 94 97 99 97 99 94 90 86 77 72 68 64 65 64 61 61 60 59 58
29 30 31 35 38 42 47 51 57 63 69 75 81 85 89 91 94 96 97 100 98 96 88 87 77 70 72 64 58 54 57 58 58 55 53 54 54 53
35 36 38 41 44 48 53 57 62 68 73 80 86 89 91 95 98 99 98 91 83 78 72 70 69 62 54 58 55 49 50 48 49 49 48 48 48 47
38 39 42 44 47 51 56 61 67 73 78 84 89 93 96 96 89 81 76 71 67 65 62 58 56 52 52 54 54 47 43 41 44 42 43 44 45 43
45 47 50 53 56 60 64 67 72 78 84 89 87 84 80 77 73 67 62 60 58 52 51 51 49 49 49 47 47 41 42 34 35 38 38 39 42 42
53 55 58 61 63 66 70 76 80 84 80 77 78 78 74 66 61 58 57 52 48 43 43 47 45 44 41 39 41 41 36 36 36 35 35 33 34 35
57 61 64 67 70 73 77 80 81 73 74 74 76 72 64 57 53 50 48 46 42 42 41 40 38 37 35 35 38 38 35 33 33 35 34 33 33 32
61 65 69 73 75 80 83 79 70 70 70 72 71 65 57 53 48 43 41 39 40 39 38 34 31 30 30 27 31 36 30 31 31 32 32 32 32 33
65 70 74 79 83 83 77 67 68 69 69 70 66 58 54 48 43 39 36 37 37 35 32 30 29 29 30 25 22 25 28 27 26 27 27 26 27 28
71 76 81 84 83 71 63 66 67 67 67 65 58 53 49 42 39 35 34 36 33 29 26 26 27 27 26 26 25 22 24 23 23 23 23 21 23 24
76 81 86 79 67 61 66 67 66 66 65 61 55 50 43 39 36 34 35 32 29 24 22 23 24 25 24 22 22 23 22 19 20 21 24 24 23 23
82 87 77 65 61 66 69 68 67 65 63 58 53 45 39 35 33 32 31 30 24 20 20 21 21 21 20 20 20 18 15 16 19 19 22 26 30 32
83 79 67 63 67 71 70 68 67 64 59 55 49 40 36 33 30 31 30 26 20 18 19 20 20 18 17 16 16 17 17 17 17 16 17 19 24 26
Wind_Direction
277 277 277 277 277 278 279 280 280 281 277 282 285 278 286 288 290 288 290 291 294 293 295 294 294 296 294 293 286 283 282 281 279 277 276 273 273 273
275 275 273 274 275 276 277 278 276 277 272 281 281 284 284 286 287 288 289 291 291 292 292 294 295 292 290 292 289 285 285 284 281 279 277 275 274 273
276 275 275 275 274 273 272 274 272 273 275 277 282 282 284 284 286 287 288 288 290 292 294 294 291 289 291 292 290 289 289 285 280 278 277 275 272 269
275 275 274 274 274 274 273 270 273 273 273 274 276 278 282 283 284 285 285 288 288 287 291 288 290 289 290 289 284 282 281 282 281 280 278 277 274 272
272 271 270 271 270 270 271 272 273 275 276 277 279 279 280 281 283 285 286 284 282 283 288 289 289 289 286 283 283 282 282 281 281 280 279 278 277 274
271 270 269 269 269 269 270 271 272 274 275 275 277 279 280 282 283 284 285 286 286 288 288 288 288 287 284 284 283 283 284 284 283 283 282 279 277 274
266 263 262 263 264 266 266 269 270 272 274 277 280 280 282 283 286 288 287 287 285 285 287 286 287 286 286 287 289 290 289 287 286 284 282 279 276 276
270 264 261 261 262 264 265 268 270 272 273 273 279 285 286 283 281 283 284 284 283 285 286 286 287 288 291 291 290 289 289 288 286 283 280 279 280 280
289 288 277 271 268 267 267 267 267 271 274 278 282 284 283 284 284 285 284 285 285 287 292 294 295 294 293 292 292 290 289 288 283 283 283 283 282 280
356 340 314 296 284 278 279 277 277 276 278 282 284 285 286 287 287 288 289 292 295 296 297 295 294 294 292 291 290 291 289 287 285 284 284 284 283 282
342 331 319 307 298 291 287 286 287 287 287 287 288 289 289 290 292 295 297 298 297 296 295 292 292 292 291 292 292 290 289 286 287 287 287 287 285 283
330 322 316 310 305 301 298 296 293 292 292 291 290 291 293 295 296 296 295 295 295 295 294 293 292 293 293 291 290 291 290 290 289 291 290 288 287 286
324 319 313 306 300 296 294 293 292 291 292 292 293 294 295 294 294 295 296 296 295 295 295 294 295 296 293 293 295 296 292 291 291 293 293 292 291 292
320 316 310 306 302 299 297 296 296 296 295 296 297 296 295 295 298 298 297 296 296 297 297 293 294 295 296 296 296 298 294 295 294 294 295 297 296 295
311 310 308 305 303 301 299 299 301 301 301 300 300 298 299 302 301 299 298 298 298 297 296 295 296 297 297 297 297 299 300 299 300 302 299 297 297 298
309 308 306 305 304 304 307 308 308 307 305 304 303 302 305 304 302 301 300 299 298 297 296 297 299 298 300 300 303 303 303 307 302 298 302 300 296 295
308 308 308 308 309 311 312 312 310 309 308 307 305 308 308 307 305 303 300 301 301 301 301 301 300 301 304 305 300 300 310 310 311 310 308 308 306 305
310 310 309 310 311 313 314 314 312 312 311 308 311 311 311 309 307 304 302 302 303 302 301 301 300 300 300 300 298 302 309 309 309 308 310 311 307 306
313 311 312 313 315 315 315 313 315 316 313 311 313 313 312 310 307 304 302 303 303 304 304 304 304 302 302 303 301 303 308 311 312 310 307 304 304 301
314 314 314 316 317 316 315 317 317 315 313 312 313 313 312 310 306 303 306 305 304 304 302 301 302 303 306 310 314 312 309 307 310 311 306 311 313 311
315 316 319 320 319 319 319 319 319 315 312 312 313 314 311 309 304 304 308 305 304 302 300 299 300 304 308 314 311 312 310 308 314 318 322 323 322 321
316 319 322 320 321 321 321 321 318 315 313 312 314 312 310 306 299 306 309 306 303 299 300 300 304 304 311 312 308 300 300 309 318 322 333 332 331 328
317 321 321 320 322 322 323 320 317 314 313 312 313 310 307 301 301 312 308 306 299 299 301 304 304 311 316 305 297 304 310 316 322 327 333 325 322 321
Height
10564 10563 10562 10561 10560 10559 10560 10559 10556 10548 10538 10533 10538 10530 10524 10518 10513 10504 10502 10495 10492 10485 10480 10476 10474 10470 10466 10467 10466 10465 10464 10462 10461 10461 10461 10461 10461 10462
10537 10538 10540 10540 10540 10542 10548 10538 10536 10534 10518 10512 10511 10509 10504 10498 10493 10487 10479 10472 10466 10462 10458 10453 10451 10447 10447 10444 10443 10441 10439 10436 10435 10435 10434 10434 10432 10432
10504 10503 10506 10509 10512 10514 10514 10516 10513 10511 10509 10494 10488 10484 10480 10476 10469 10464 10455 10450 10443 10439 10435 10432 10427 10426 10423 10421 10418 10415 10412 10409 10407 10405 10404 10403 10400 10398
10472 10474 10476 10478 10481 10484 10486 10492 10487 10488 10487 10480 10473 10465 10458 10452 10444 10440 10434 10428 10421 10415 10413 10410 10407 10404 10400 10398 10392 10388 10386 10384 10381 10378 10375 10371 10366 10363
10442 10446 10450 10453 10455 10458 10460 10462 10461 10460 10457 10453 10448 10441 10434 10428 10424 10417 10411 10405 10398 10394 10392 10387 10384 10381 10377 10370 10366 10363 10361 10359 10354 10350 10344 10339 10335 10331
10412 10418 10424 10427 10431 10434 10437 10439 10440 10438 10434 10429 10424 10417 10411 10407 10400 10393 10387 10382 10375 10371 10369 10363 10358 10353 10347 10345 10340 10339 10336 10332 10326 10321 10314 10305 10296 10293
10386 10389 10396 10403 10407 10413 10417 10419 10419 10418 10414 10410 10403 10396 10390 10384 10379 10372 10368 10360 10349 10348 10344 10332 10335 10324 10318 10315 10312 10311 10307 10300 10293 10285 10274 10263 10253 10254
10372 10374 10379 10385 10390 10393 10397 10401 10403 10399 10394 10391 10384 10377 10371 10364 10355 10350 10343 10336 10326 10322 10323 10306 10309 10295 10291 10287 10284 10279 10272 10265 10255 10243 10233 10225 10223 10222
10363 10368 10371 10375 10379 10381 10383 10385 10384 10382 10377 10374 10366 10358 10350 10344 10335 10327 10321 10313 10304 10299 10299 10283 10273 10265 10259 10254 10249 10244 10239 10229 10215 10209 10203 10198 10194 10191
10369 10370 10372 10372 10373 10375 10374 10373 10370 10366 10362 10355 10347 10338 10331 10322 10312 10303 10296 10288 10277 10271 10272 10260 10244 10236 10225 10223 10218 10213 10206 10196 10188 10183 10177 10174 10170 10166
10373 10372 10371 10369 10368 10368 10365 10362 10358 10353 10346 10337 10328 10318 10308 10298 10288 10278 10270 10262 10252 10241 10241 10226 10217 10211 10195 10195 10193 10187 10180 10170 10164 10161 10156 10150 10146 10140
10372 10369 10366 10364 10361 10358 10354 10349 10342 10335 10327 10317 10307 10295 10285 10276 10265 10255 10245 10235 10227 10215 10210 10191 10188 10190 10173 10172 10170 10167 10158 10152 10144 10141 10136 10130 10125 10121
10366 10362 10358 10355 10352 10347 10341 10334 10326 10317 10308 10297 10285 10274 10264 10253 10241 10230 10220 10206 10195 10188 10183 10170 10161 10160 10159 10147 10145 10150 10140 10135 10128 10124 10119 10113 10107 10103
10360 10356 10352 10347 10341 10333 10325 10317 10309 10300 10289 10277 10264 10251 10237 10224 10213 10201 10192 10181 10173 10166 10159 10153 10147 10144 10138 10134 10127 10127 10125 10121 10114 10111 10104 10098 10092 10088
10355 10349 10342 10335 10328 10319 10311 10302 10292 10279 10266 10251 10236 10221 10209 10200 10189 10177 10169 10161 10156 10151 10143 10136 10133 10129 10125 10119 10112 10113 10106 10108 10103 10095 10091 10085 10078 10074
10345 10337 10329 10321 10312 10302 10292 10281 10268 10254 10239 10225 10211 10198 10188 10178 10169 10159 10150 10145 10141 10137 10132 10124 10120 10115 10111 10107 10102 10096 10097 10091 10088 10085 10081 10076 10070 10065
10331 10322 10312 10302 10293 10283 10272 10259 10245 10230 10217 10202 10188 10178 10168 10159 10151 10144 10136 10130 10126 10122 10119 10114 10109 10105 10102 10098 10091 10088 10085 10082 10077 10072 10069 10064 10058 10055
10317 10306 10296 10286 10275 10263 10250 10236 10223 10211 10196 10181 10169 10158 10150 10143 10136 10130 10124 10119 10115 10111 10107 10104 10101 10098 10095 10093 10084 10078 10079 10074 10070 10065 10061 10057 10051 10045
10301 10289 10279 10268 10256 10243 10230 10217 10204 10190 10176 10163 10153 10144 10136 10129 10123 10118 10114 10110 10105 10100 10096 10093 10090 10087 10084 10083 10080 10075 10069 10066 10063 10059 10054 10050 10046 10041
10284 10273 10261 10249 10235 10222 10211 10200 10189 10175 10161 10149 10141 10133 10125 10118 10112 10108 10105 10099 10095 10091 10088 10085 10082 10079 10077 10073 10070 10067 10063 10059 10056 10051 10047 10043 10038 10033
10269 10256 10243 10229 10216 10205 10195 10184 10172 10159 10146 10135 10129 10121 10113 10106 10102 10099 10095 10091 10086 10083 10081 10079 10076 10073 10071 10067 10064 10060 10056 10052 10048 10043 10038 10034 10030 10027
10251 10239 10226 10213 10202 10191 10180 10168 10155 10143 10131 10122 10116 10109 10102 10097 10093 10091 10087 10081 10079 10075 10074 10072 10070 10067 10065 10062 10058 10055 10051 10047 10042 10038 10033 10028 10022 10017
10235 10223 10211 10200 10188 10176 10164 10151 10139 10128 10119 10110 10103 10098 10092 10087 10085 10082 10077 10073 10070 10068 10067 10065 10063 10061 10059 10057 10053 10049 10046 10042 10038 10035 10032 10027 10022 10018